| time (UTC) | temp F | wind direction | speed knots | gust knots | rain 1hr in | rain 24hr in | rain mn in | humidity % | barometer mb |
| 20260508203051 | 54 | 330 | 1.7 | 7.8 | 0.00 | 0.20 | 0.00 | 67 | 1001.7 |
| 20260508201555 | 54 | 39 | 1.7 | 7.8 | 0.00 | 0.20 | 0.00 | 65 | 1001.6 |
| 20260508200059 | 55 | 322 | 2.6 | 11.3 | 0.00 | 0.20 | 0.00 | 62 | 1001.5 |
| 20260508194542 | 56 | 148 | 4.3 | 9.6 | 0.00 | 0.43 | 0.00 | 63 | 1001.4 |
| 20260508193040 | 56 | 344 | 2.6 | 8.7 | 0.00 | 0.43 | 0.00 | 64 | 1001.5 |
| 20260508191541 | 55 | 127 | 2.6 | 9.6 | 0.00 | 0.43 | 0.00 | 64 | 1001.3 |
| 20260508190044 | 54 | 323 | 4.3 | 7.0 | 0.00 | 0.43 | 0.00 | 69 | 1001.3 |
| 20260508184538 | 53 | 116 | 2.6 | 9.6 | 0.00 | 0.65 | 0.00 | 69 | 1001.4 |
| 20260508183038 | 54 | 57 | 1.7 | 9.6 | 0.00 | 0.65 | 0.00 | 68 | 1001.5 |
| 20260508181603 | 53 | 159 | 0.9 | 7.8 | 0.00 | 0.65 | 0.00 | 72 | 1001.5 |
| 20260508180035 | 54 | 173 | 2.6 | 9.6 | 0.00 | 0.65 | 0.00 | 70 | 1001.5 |
| 20260508174535 | 55 | 48 | 3.5 | 9.6 | 0.00 | 0.65 | 0.00 | 70 | 1001.8 |
| 20260508173035 | 54 | 175 | 1.7 | 7.8 | 0.00 | 0.65 | 0.00 | 73 | 1001.9 |
| 20260508171538 | 52 | 102 | 0.9 | 7.8 | 0.00 | 0.65 | 0.00 | 76 | 1001.8 |
| 20260508170034 | 53 | 139 | 2.6 | 7.0 | 0.00 | 0.65 | 0.00 | 72 | 1001.7 |
| 20260508164538 | 53 | 350 | 2.6 | 6.1 | 0.00 | 0.65 | 0.00 | 71 | 1001.8 |
| 20260508163032 | 53 | 139 | 2.6 | 7.8 | 0.00 | 0.65 | 0.00 | 72 | 1001.7 |
| 20260508161536 | 53 | 328 | 2.6 | 7.8 | 0.00 | 0.65 | 0.00 | 70 | 1001.5 |
| 20260508160038 | 54 | 69 | 1.7 | 7.8 | 0.00 | 0.65 | 0.00 | 71 | 1001.5 |
| 20260508154533 | 55 | 139 | 3.5 | 8.7 | 0.00 | 0.65 | 0.00 | 69 | 1001.5 |
| 20260508153028 | 56 | 76 | 3.5 | 10.4 | 0.00 | 0.65 | 0.00 | 68 | 1001.7 |
| 20260508151526 | 55 | 106 | 6.1 | 13.0 | 0.00 | 0.65 | 0.00 | 69 | 1001.9 |
| 20260508150026 | 55 | 102 | 5.2 | 11.3 | 0.00 | 0.65 | 0.00 | 69 | 1001.7 |
| 20260508144525 | 55 | 75 | 2.6 | 7.0 | 0.00 | 0.65 | 0.00 | 69 | 1001.9 |
| 20260508143021 | 55 | 157 | 2.6 | 7.0 | 0.00 | 0.65 | 0.00 | 72 | 1002.2 |
| 20260508141530 | 54 | 165 | 3.5 | 7.0 | 0.00 | 0.65 | 0.00 | 70 | 1002.3 |
| 20260508140019 | 54 | 108 | 0.9 | 7.0 | 0.00 | 0.65 | 0.00 | 74 | 1002.6 |
| 20260508134517 | 53 | 100 | 2.6 | 7.8 | 0.00 | 0.65 | 0.00 | 72 | 1002.6 |
| 20260508133020 | 53 | 116 | 2.6 | 7.0 | 0.00 | 0.65 | 0.00 | 75 | 1002.3 |
| 20260508131611 | 52 | 101 | 2.6 | 8.7 | 0.00 | 0.65 | 0.00 | 77 | 1002.3 |
| 20260508130011 | 52 | 114 | 3.5 | 8.7 | 0.00 | 0.65 | 0.00 | 81 | 1002.2 |
| 20260508124509 | 51 | 104 | 2.6 | 6.1 | 0.00 | 0.65 | 0.00 | 85 | 1002.2 |
| 20260508123005 | 51 | 58 | 0.0 | 4.3 | 0.00 | 0.65 | 0.00 | 90 | 1002.2 |
| 20260508121501 | 49 | 117 | 0.0 | 4.3 | 0.00 | 0.65 | 0.00 | 96 | 1002.5 |
| 20260508114555 | 46 | 62 | 0.9 | 5.2 | 0.00 | 0.67 | 0.00 | 100 | 1002.2 |
| 20260508113056 | 44 | 52 | 0.0 | 0.0 | 0.00 | 0.67 | 0.00 | 100 | 1002.4 |
| 20260508111557 | 42 | 48 | 0.0 | 0.0 | 0.00 | 0.67 | 0.00 | 100 | 1002.7 |
| 20260508110058 | 41 | 48 | 0.0 | 0.0 | 0.00 | 0.67 | 0.00 | 99 | 1003.0 |
| 20260508104547 | 41 | 41 | 0.0 | 0.0 | 0.00 | 0.67 | 0.00 | 100 | 1002.7 |
| 20260508103107 | 40 | 41 | 0.0 | 0.0 | 0.00 | 0.67 | 0.00 | 99 | 1002.9 |
| 20260508101549 | 40 | 41 | 0.0 | 0.0 | 0.00 | 0.67 | 0.00 | 99 | 1002.6 |
| 20260508100044 | 39 | 38 | 0.0 | 0.0 | 0.00 | 0.67 | 0.00 | 99 | 1002.3 |
| 20260508094602 | 38 | 38 | 0.0 | 0.0 | 0.00 | 0.67 | 0.00 | 99 | 1002.2 |
| 20260508093043 | 38 | 38 | 0.0 | 0.0 | 0.00 | 0.67 | 0.00 | 99 | 1002.2 |
| 20260508091541 | 38 | 38 | 0.0 | 0.0 | 0.00 | 0.67 | 0.00 | 99 | 1002.3 |
| 20260508090039 | 38 | 38 | 0.0 | 0.0 | 0.00 | 0.67 | 0.00 | 99 | 1002.0 |
| 20260508084536 | 39 | 38 | 0.0 | 0.0 | 0.00 | 0.67 | 0.00 | 99 | 1001.5 |
| 20260508083036 | 40 | 38 | 0.0 | 0.0 | 0.00 | 0.67 | 0.00 | 99 | 1001.7 |
| 20260508081532 | 40 | 38 | 0.0 | 0.0 | 0.00 | 0.67 | 0.00 | 99 | 1001.2 |
| 20260508080037 | 41 | 31 | 0.0 | 0.0 | 0.00 | 0.67 | 0.00 | 99 | 1001.3 |
| 20260508074527 | 41 | 31 | 0.0 | 0.0 | 0.00 | 0.67 | 0.00 | 99 | 1001.5 |
| 20260508073029 | 42 | 31 | 0.0 | 0.0 | 0.00 | 0.67 | 0.00 | 99 | 1001.6 |
| 20260508071528 | 42 | 31 | 0.0 | 0.0 | 0.00 | 0.67 | 0.00 | 99 | 1001.8 |
| 20260508070025 | 42 | 31 | 0.0 | 0.0 | 0.00 | 0.67 | 0.00 | 99 | 1001.9 |
| 20260508064534 | 42 | 31 | 0.0 | 0.0 | 0.00 | 0.67 | 0.00 | 99 | 1001.7 |
| 20260508063025 | 42 | 31 | 0.0 | 0.0 | 0.00 | 0.67 | 0.00 | 99 | 1001.8 |
| 20260508061522 | 42 | 24 | 0.0 | 0.9 | 0.00 | 0.67 | 0.00 | 99 | 1001.7 |
| 20260508060022 | 43 | 15 | 0.0 | 3.5 | 0.00 | 0.67 | 0.00 | 99 | 1001.7 |
| 20260508054521 | 43 | 287 | 0.0 | 0.9 | 0.00 | 0.67 | 0.00 | 99 | 1001.8 |
| 20260508053024 | 43 | 287 | 0.0 | 3.5 | 0.00 | 0.67 | 0.00 | 99 | 1001.7 |
| 20260508051519 | 43 | 204 | 0.0 | 2.6 | 0.00 | 0.67 | 0.00 | 100 | 1001.7 |
| 20260508050024 | 43 | 114 | 0.0 | 0.9 | 0.00 | 0.67 | 0.00 | 99 | 1001.6 |
| 20260508044517 | 43 | 114 | 0.0 | 0.0 | 0.00 | 0.67 | 0.00 | 99 | 1001.7 |
| 20260508043015 | 42 | 114 | 0.0 | 0.0 | 0.00 | 0.67 | 0.00 | 99 | 1001.8 |
| 20260508041514 | 42 | 114 | 0.0 | 1.7 | 0.00 | 0.67 | 0.00 | 99 | 1001.7 |
| 20260508040021 | 42 | 91 | 1.7 | 6.1 | 0.00 | 0.67 | 0.00 | 99 | 1002.1 |
| 20260508034512 | 42 | 116 | 0.0 | 0.0 | 0.00 | 0.67 | 0.00 | 99 | 1001.9 |
| 20260508033010 | 42 | 116 | 0.0 | 0.9 | 0.00 | 0.67 | 0.00 | 99 | 1002.0 |
| 20260508031508 | 42 | 116 | 0.0 | 0.0 | 0.00 | 0.67 | 0.00 | 99 | 1001.9 |
| 20260508030006 | 42 | 116 | 0.0 | 0.0 | 0.00 | 0.67 | 0.67 | 99 | 1002.1 |
| 20260508024506 | 42 | 116 | 0.0 | 0.0 | 0.00 | 0.67 | 0.67 | 99 | 1002.4 |
| 20260508023007 | 43 | 116 | 0.0 | 1.7 | 0.00 | 0.67 | 0.67 | 99 | 1002.0 |
| 20260508021503 | 44 | 118 | 1.7 | 5.2 | 0.00 | 0.67 | 0.67 | 98 | 1002.3 |
| 20260508020004 | 46 | 41 | 0.0 | 0.9 | 0.00 | 0.67 | 0.67 | 99 | 1001.9 |
| 20260508014505 | 46 | 134 | 0.0 | 1.7 | 0.00 | 0.67 | 0.67 | 99 | 1001.8 |
| 20260508013003 | 46 | 135 | 0.0 | 0.0 | 0.00 | 0.67 | 0.67 | 100 | 1001.6 |
| 20260508011502 | 45 | 135 | 0.0 | 0.0 | 0.00 | 0.67 | 0.67 | 99 | 1001.6 |
| 20260508010003 | 45 | 177 | 0.0 | 1.7 | 0.00 | 0.67 | 0.67 | 100 | 1001.6 |
| 20260508004503 | 45 | 104 | 0.0 | 5.2 | 0.00 | 0.67 | 0.67 | 99 | 1001.9 |
| 20260508003003 | 46 | 160 | 0.9 | 1.7 | 0.00 | 0.67 | 0.67 | 100 | 1001.9 |
| 20260508001601 | 45 | 122 | 0.0 | 0.9 | 0.00 | 0.67 | 0.67 | 99 | 1001.7 |
| 20260507234602 | 45 | 129 | 0.0 | 0.0 | 0.00 | 0.67 | 0.67 | 99 | 1001.3 |
| 20260507233058 | 45 | 129 | 0.0 | 0.9 | 0.00 | 0.67 | 0.67 | 99 | 1001.4 |
| 20260507231600 | 44 | 129 | 0.0 | 0.9 | 0.00 | 0.67 | 0.67 | 99 | 1001.6 |
| 20260507230100 | 45 | 129 | 0.0 | 2.6 | 0.00 | 0.67 | 0.67 | 98 | 1001.5 |
| 20260507224616 | 45 | 129 | 0.0 | 1.7 | 0.00 | 0.67 | 0.67 | 98 | 1001.5 |
| 20260507223100 | 46 | 118 | 0.0 | 5.2 | 0.00 | 0.67 | 0.67 | 98 | 1001.5 |
| 20260507221556 | 46 | 120 | 0.0 | 5.2 | 0.00 | 0.67 | 0.67 | 99 | 1001.6 |
| 20260507220058 | 47 | 123 | 2.6 | 9.6 | 0.01 | 0.67 | 0.67 | 98 | 1002.0 |
| 20260507214602 | 49 | 163 | 0.9 | 7.0 | 0.02 | 0.67 | 0.67 | 99 | 1001.6 |
| 20260507213054 | 49 | 109 | 0.9 | 6.1 | 0.06 | 0.67 | 0.67 | 100 | 1002.1 |
| 20260507211618 | 46 | 42 | 0.0 | 4.3 | 0.13 | 0.67 | 0.67 | 99 | 1001.4 |
| 20260507210054 | 46 | 146 | 3.5 | 7.8 | 0.19 | 0.66 | 0.66 | 97 | 1001.8 |
| 20260507204600 | 50 | 124 | 3.5 | 7.8 | 0.26 | 0.65 | 0.65 | 99 | 1001.7 |